Погода в Караганде

Россия / Оренбургская область     50°42′03″N   59°43′07″E
темп.,
°C
ветер,
м/с
пор.,
м/с
влажн.,
%
обл.,
%
осадки,
мм/ч
давл.,
гПа
погр.,
м
23 сентября, чт
чт2323:00+10в3436100 0.0 102342
02:00+10вюв3436100 0.0 102357
05:00+10вюв333690 0.0 102453
08:00+9в353758 0.0 1025119
11:00+14в56265 0.0 1025971
14:00+16в55256 0.0 10251486
17:00+16в66295 0.0 10241498
20:00+11в5104272 0.0 1026235
24 сентября, пт
пт2423:00+9в6114862 0.0 1027275
02:00+7вюв51147100 0.0 1027257
05:00+6вюв51147100 0.0 1028257
08:00+7вюв6124678 0.0 1028375
11:00+12юв8103279 0.0 1027841
14:00+15юв8926100 0.0 10251164
17:00+16юв81025100 0.0 10231177
20:00+12вюв71329100 0.0 1023445
25 сентября, сб
сб2523:00+11юв81528100 0.0 1022481
02:00+10вюв81527100 0.0 1021420
05:00+9вюв7142934 0.0 1020291
08:00+9вюв81527100 0.0 1018389
11:00+15юв91321100 0.0 1017725
14:00+19юв101216100 0.0 10131114
17:00+20юв81117100 0.0 10121375
20:00+16вюв61319100 0.0 1011252
26 сентября, вс
вс2623:00+16вюв81519100 0.0 1010352
02:00+15вюв71322100 0.0 1008305
05:00+13юв4925100 0.0 1008185
08:00+13вюв2326100 0.0 100878
11:00+16в1222100 0.0 1007282
14:00+17ссз4521100 0.0 10061066
17:00+16сз5526100 0.0 10061006
20:00+12сз6751100 0.0 1006174
27 сентября, пн
пн2723:00+12ссз4742100 0.0 1005259
02:00+10ссв7845100 0.0 1007693
05:00+7св6939100 0.0 1009620
08:00+6ссв7843100 0.0 1011698
11:00+5ссв8762100 0.0 1014854
14:00+6св7762100 0.0 1016959
17:00+4св7873100 0.1 1017923
20:00+3всв7973100 0.0 1018912